#timestamp,LO_Frequency,Hit,StdDev 
1654329615.2,286046996.8,N
1654329635.1,286046996.6,N
1654329636.0,286046996.6,N
1654329655.8,286046998.3,N
1654329675.6,286046999.5,N
1654329695.5,286046998.7,N
1654329715.3,286047001.0,N
1654329735.1,286047001.0,N
1654329755.9,286046998.4,N
1654329775.7,286047000.9,N
1654329795.6,286047000.6,N
1654329815.4,286046998.5,N
1654329835.2,286046998.1,N
1654329855.1,286047000.7,N
1654329856.0,286047000.7,N
1654329875.8,286047001.1,N
1654329895.7,286046999.3,N
1654329915.5,286046996.6,N
1654329935.3,286046996.5,N
1654329955.2,286046998.8,N
1654329975.0,286046998.4,N
1654329975.9,286046998.4,N
1654329995.8,286046997.0,N
1654330015.6,286046996.5,N
1654330035.4,286046999.2,N
1654330055.3,286046998.1,N
1654330075.1,286046998.3,N
1654330095.9,286046998.6,N
1654330115.7,286046998.9,N
1654330135.5,286046999.3,N
1654330155.4,286046998.6,N
1654330175.2,286046997.0,N
1654330195.1,286046996.7,N
1654330196.0,286046996.7,N
1654330215.8,286046997.3,N
1654330235.6,286046997.4,N
1654330255.5,286046999.2,N
1654330275.3,286046999.1,N
1654330295.2,286046999.0,N
1654330315.9,286046998.3,N
1654330335.8,286046998.9,N
1654330355.6,286047000.7,N
1654330375.4,286046999.4,N
1654330395.3,286046998.3,N
1654330415.1,286046998.9,N
1654330435.8,286047001.2,N
1654330455.7,286046998.7,N
1654330475.5,286046998.3,N
1654330495.4,286046998.1,N
1654330515.2,286047001.0,N
1654330535.0,286047001.1,N
1654330535.9,286047001.1,N
1654330555.8,286046999.0,N
1654330575.6,286046998.7,N
1654330595.5,286046998.1,N
1654330615.3,286047000.9,N
1654330635.1,286047001.1,N
1654330655.9,286046998.3,N
1654330675.7,286046999.4,N
1654330695.6,286046998.8,N
1654330715.4,286046996.6,N
1654330735.2,286046996.5,N
1654330755.1,286046996.8,N
1654330756.0,286046996.8,N
1654330775.8,286046996.8,N
1654330795.7,286046996.9,N
1654330815.5,286046995.4,Y
1654330835.3,286046996.5,P
1654330855.2,286046997.4,N
1654330875.0,286046997.9,N
1654330875.9,286046997.9,N
1654330895.8,286046996.9,Y
1654330915.6,286046999.8,P
1654330935.4,286047000.2,N
1654330955.3,286047000.7,N
1654330975.1,286046999.6,N
1654330995.8,286046996.9,Y
1654331015.7,286046999.0,P
1654331035.5,286046998.9,P
1654331055.4,286047000.7,N
1654331075.2,286047000.4,N
1654331095.0,286047002.8,Y
1654331095.9,286047002.8,P
1654331115.8,286046999.7,N
1654331135.6,286047002.5,N
1654331155.5,286047001.6,N
1654331175.3,286047001.8,N
1654331195.1,286047001.6,N
1654331215.9,286047001.8,N
1654331235.7,286047001.5,N
1654331255.5,286047001.7,N
1654331275.4,286047001.3,N
1654331295.2,286047004.1,Y
1654331315.1,286047002.5,P
1654331316.0,286047002.5,P
1654331335.8,286047001.4,N
1654331355.6,286047001.3,N
1654331375.5,286047004.0,Y
1654331395.3,286047002.5,P
1654331415.2,286047002.3,P
1654331435.9,286046999.7,N
1654331455.7,286047002.3,N
1654331475.6,286047000.1,N
1654331495.4,286047011.9,Y
1654331515.2,286046998.2,P
1654331535.1,286046998.5,N
1654331536.0,286046998.5,N
1654331555.8,286046998.2,N
1654331575.7,286047000.8,N
1654331595.5,286047001.1,N
1654331615.3,286047001.1,N
1654331635.2,286046999.7,N
1654331655.0,286047003.6,N
1654331655.9,286047003.6,N
1654331675.7,286047005.1,N
1654331695.6,286047004.7,N
1654331715.4,286047005.1,N
1654331735.3,286047004.9,N
1654331755.1,286047005.0,N
1654331756.0,286047005.0,N
1654331775.8,286047004.6,N
1654331795.7,286047007.2,N
1654331815.5,286047004.5,N
1654331835.3,286047007.1,N
1654331855.2,286047009.0,Y
1654331875.0,286047003.6,P
1654331875.9,286047003.6,P
1654331895.8,286047005.8,P
1654331915.6,286047004.1,Y
1654331935.4,286047000.2,P
1654331955.3,286047000.3,N
1654331975.1,286046998.1,N
1654331995.9,286046998.6,N
1654332015.7,286046999.0,N
1654332035.5,286046996.5,N
1654332055.4,286046996.5,N
1654332075.2,286046999.6,N
1654332095.0,286046997.1,N
1654332096.0,286046997.1,N
1654332115.8,286046996.7,N
1654332135.6,286046999.6,N
1654332155.5,286046996.9,N
1654332175.3,286046997.4,N
1654332195.2,286046997.1,N
1654332215.9,286046997.0,N
1654332235.7,286046996.6,N
1654332255.6,286046996.8,N
1654332275.4,286046997.3,N
1654332295.3,286046997.0,N
1654332315.1,286046999.6,N
1654332316.0,286046999.6,N
1654332335.8,286046996.5,N
1654332355.7,286046996.8,N
1654332375.5,286046997.4,N
1654332395.3,286046997.4,N
1654332415.2,286046997.3,N
1654332435.0,286046998.0,N
1654332435.9,286046998.0,N
1654332455.8,286046995.0,Y
1654332475.6,286046999.6,P
1654332495.4,286046998.3,N
1654332515.3,286046998.3,N
1654332535.1,286047000.7,N
1654332555.9,286046998.9,N
1654332575.7,286046999.4,N
1654332595.5,286046996.9,Y
1654332615.4,286046999.5,P
1654332635.2,286046997.1,P
1654332655.0,286046997.8,N
1654332655.9,286046997.8,N
1654332675.8,286046996.6,Y
1654332695.6,286046998.3,P
1654332715.5,286047002.0,P
1654332735.3,286047003.4,N
1654332755.1,286047005.3,N
1654332775.9,286047005.2,N
1654332795.7,286047003.8,N
1654332815.5,286047002.3,N
1654332835.4,286047000.9,N
1654332855.2,286046998.3,N
1654332875.1,286046999.4,N
1654332876.0,286046999.4,N
1654332895.8,286046999.5,N
1654332915.6,286046996.7,N
1654332935.5,286046997.9,N
1654332955.3,286046994.9,N
1654332975.1,286046995.3,N
1654332995.9,286046998.0,N
1654333015.7,286046995.5,N
1654333035.6,286046995.3,N
1654333055.4,286046997.2,N
1654333075.2,286046997.7,N
1654333095.1,286046997.3,N
1654333096.0,286046997.3,N
1654333115.8,286046994.9,N
1654333135.7,286046995.2,N
1654333155.5,286046995.3,N
1654333175.3,286046994.0,N
1654333195.2,286046993.5,N
